Location: Borbetomagus
(49.6328°N, 8.3592°E)
Time: 00:37:46
(UTC+00:00)

USA 229 - Pass Details

Date: 19 May 2025
Orbit: 872 x 1339 km, 63.4° (Epoch: 20 June)

Event Time Altitude Azimuth Distance (km) Brightness Sun altitude
Exits shadow 23:20:50 33° 207° (SSW) 1,542 4.1 -20.4°
Maximum altitude 23:23:48 76° 128° (SE) 1,016 3.4 -20.4°
Drops below altitude 10° 23:30:36 10° 44° (NE) 2,913 6.6 -20.4°
Sets 23:33:24 0° 44° (NE) 3,945 7.4 -20.3°
